This is the latest recevied weather packets stored in our database for station/object KD2DXJ. If no packets are shown the sender has not sent any weather packets the latest 10 day(s).
| Time | Temp. | Humidity | Pressure | Rain* | Wind** | Luminosity | Snow |
|---|---|---|---|---|---|---|---|
| 1777511317 | 11.11° C | 99% | 1006.3 hPa | 3.05 mm | - | 0 W/m² | - |
| 1777511013 | 11.11° C | 99% | 1006.4 hPa | 2.29 mm | - | 0 W/m² | - |
| 1777510710 | 11.11° C | 99% | 1006.5 hPa | 4.32 mm | - | 0 W/m² | - |
| 1777510406 | 11.11° C | 99% | 1006.6 hPa | 4.32 mm | - | 0 W/m² | - |
| 1777510102 | 11.11° C | 99% | 1006.7 hPa | 3.05 mm | - | 0 W/m² | - |
| 1777509799 | 11.11° C | 99% | 1006.6 hPa | 3.05 mm | - | 0 W/m² | - |
| 1777509495 | 11.11° C | 99% | 1006.6 hPa | 3.05 mm | - | 0 W/m² | - |
| 1777509192 | 11.11° C | 99% | 1006.7 hPa | 3.05 mm | - | 0 W/m² | - |
| 1777508889 | 11.11° C | 99% | 1006.7 hPa | 2.29 mm | - | 0 W/m² | - |
| 1777508586 | 11.11° C | 99% | 1006.8 hPa | 1.27 mm | - | 0 W/m² | - |
| 1777508283 | 11.11° C | 99% | 1006.8 hPa | 1.78 mm | - | 0 W/m² | - |
| 1777507980 | 11.11° C | 99% | 1006.7 hPa | 3.05 mm | - | 0 W/m² | - |
| 1777507676 | 11.11° C | 99% | 1006.8 hPa | 4.32 mm | - | 0 W/m² | - |
| 1777507374 | 11.11° C | 99% | 1007 hPa | 4.32 mm | - | 0 W/m² | - |
| 1777507071 | 11.11° C | 99% | 1007.2 hPa | 3.05 mm | - | 0 W/m² | - |
| 1777506769 | 11.11° C | 99% | 1007 hPa | 3.05 mm | - | 1 W/m² | - |
| 1777506465 | 11.11° C | 99% | 1007.1 hPa | 5.33 mm | - | 1 W/m² | - |
| 1777506161 | 11.11° C | 99% | 1007.2 hPa | 4.32 mm | - | 1 W/m² | - |
| 1777505857 | 11.11° C | 99% | 1007.2 hPa | 1.78 mm | - | 1 W/m² | - |
| 1777505553 | 11.11° C | 99% | 1007.1 hPa | 3.05 mm | - | 2 W/m² | - |
| 1777505250 | 11.11° C | 99% | 1007.1 hPa | 2.29 mm | - | 3 W/m² | - |
| 1777504947 | 11.11° C | 99% | 1007.4 hPa | 3.05 mm | - | 4 W/m² | - |
| 1777504644 | 11.11° C | 99% | 1007.2 hPa | 3.05 mm | - | 4 W/m² | - |
| 1777504341 | 11.11° C | 99% | 1007.2 hPa | 4.32 mm | - | 7 W/m² | - |
| 1777504035 | 11.11° C | 99% | 1007.3 hPa | 4.32 mm | - | 6 W/m² | - |
* Rain latest hour (hover to see other rain measurements)
** Current wind speed in m/s (hover to see current wind gust speed)